This is the latest recevied weather packets stored in our database for station/object NC4M. If no packets are shown the sender has not sent any weather packets the latest 10 day(s).
| Time | Temp. | Humidity | Pressure | Rain* | Wind** | Luminosity | Snow |
|---|---|---|---|---|---|---|---|
| 1778006023 | 10.56° C | 83% | 1010.7 hPa | 0 mm | - | 54 W/m² | - |
| 1778005720 | 10.56° C | 82% | 1011 hPa | 0 mm | - | 53 W/m² | - |
| 1778005417 | 10.56° C | 82% | 1010.6 hPa | 0 mm | - | 51 W/m² | - |
| 1778005114 | 10.56° C | 83% | 1010.6 hPa | 0 mm | - | 54 W/m² | - |
| 1778004811 | 10.56° C | 79% | 1010.4 hPa | 0 mm | - | 69 W/m² | - |
| 1778004507 | 10.56° C | 80% | 1010.4 hPa | 0 mm | - | 81 W/m² | - |
| 1778004204 | 10.56° C | 82% | 1009.9 hPa | 0 mm | - | 100 W/m² | - |
| 1778003900 | 10.56° C | 81% | 1009.7 hPa | 0 mm | - | 130 W/m² | - |
| 1778003597 | 11.11° C | 81% | 1009.7 hPa | 0 mm | - | 130 W/m² | - |
| 1778003293 | 11.11° C | 81% | 1009.8 hPa | 0 mm | - | 149 W/m² | - |
| 1778002991 | 11.11° C | 80% | 1009.8 hPa | 0 mm | - | 138 W/m² | - |
| 1778002686 | 11.11° C | 81% | 1009.9 hPa | 1.27 mm | - | 155 W/m² | - |
| 1778002383 | 11.11° C | 76% | 1009.8 hPa | 0 mm | - | 222 W/m² | - |
| 1778002080 | 11.11° C | 76% | 1010.2 hPa | 0 mm | - | 175 W/m² | - |
| 1778001777 | 11.11° C | 76% | 1010.2 hPa | 0 mm | - | 100 W/m² | - |
| 1778001472 | 11.11° C | 76% | 1010.6 hPa | 0 mm | - | 59 W/m² | - |
| 1778001169 | 11.11° C | 76% | 1010.3 hPa | 0 mm | - | 79 W/m² | - |
| 1778000866 | 11.11° C | 79% | 1011.1 hPa | 0 mm | - | 60 W/m² | - |
| 1778000563 | 11.11° C | 79% | 1010.6 hPa | 0 mm | - | 66 W/m² | - |
| 1777999954 | 11.67° C | 79% | 1011.1 hPa | 0 mm | - | 42 W/m² | - |
| 1777999650 | 11.67° C | 79% | 1010.7 hPa | 0 mm | - | 48 W/m² | - |
| 1777999347 | 11.67° C | 79% | 1011.1 hPa | 0 mm | - | 43 W/m² | - |
| 1777999045 | 11.67° C | 79% | 1011.1 hPa | 0 mm | - | 45 W/m² | - |
| 1777998744 | 11.67° C | 80% | 1010.9 hPa | 0 mm | - | 52 W/m² | - |
| 1777998441 | 11.67° C | 80% | 1010.7 hPa | 0 mm | - | 51 W/m² | - |
* Rain latest hour (hover to see other rain measurements)
** Current wind speed in m/s (hover to see current wind gust speed)